Nrc Columbia — WDA8288 — position and weather

sailwx.info

Track history (hours):
 
Tides and Currents Weather Stations Pressure Air Temp Water Temp Dewpoint Dewpoint Depression Visibility Wind Speed Wind Dir Waves Ship Positions

Nrc Columbia

Owner: National Response Corporation, HOUSTON, TX. More information available from US FCC via Universal Licensing System and Coast Guard Vessel Documentation Center.

Last reported at 2014-Oct-30 17:33 UTC. Time now 2014-Oct-30 18:20 UTC.
Position N 48°50' W 122°43'.

Length 35 m.

Type: Pollution control. MMSI: 366710170.

Date/timePositionNaut miles runAvg speedWind from/ knotsBaromVisibWave heightAir tempDewpointWater temp
2014-Oct-30 17:33N 48°50' W 122°43'0 0.0
2014-Oct-30 16:26N 48°50' W 122°43'0 0.0
2014-Oct-30 15:33N 48°50' W 122°43'0 0.0
2014-Oct-30 14:32N 48°50' W 122°43'0 0.0
2014-Oct-30 13:32N 48°50' W 122°43'0 0.0
2014-Oct-30 12:33N 48°50' W 122°43'0 0.0
2014-Oct-30 11:21N 48°50' W 122°43'0 0.0
2014-Oct-30 10:33N 48°50' W 122°43'0 0.0
2014-Oct-30 09:30N 48°50' W 122°43'0 0.0
2014-Oct-30 08:32N 48°50' W 122°43'0 0.0
2014-Oct-30 07:33N 48°50' W 122°43'0 0.0
2014-Oct-30 06:21N 48°50' W 122°43'0 0.0
2014-Oct-30 05:33N 48°50' W 122°43'0 0.0
2014-Oct-30 04:31N 48°50' W 122°43'0 0.0
2014-Oct-29 18:27N 48°50' W 122°43'0 0.0
2014-Oct-29 14:33N 48°50' W 122°43'0 0.0
2014-Oct-29 13:28N 48°50' W 122°43'0 0.0
2014-Oct-29 12:33N 48°50' W 122°43'0 0.0
2014-Oct-29 11:32N 48°50' W 122°43'0 0.0
2014-Oct-29 10:32N 48°50' W 122°43'0 0.0
2014-Oct-29 09:32N 48°50' W 122°43'0 0.0
2014-Oct-29 08:22N 48°50' W 122°43'0 0.0
2014-Oct-29 07:33N 48°50' W 122°43'0 0.0
2014-Oct-29 05:33N 48°50' W 122°43'0 0.0
2014-Oct-29 01:33N 48°50' W 122°43'0 0.0
2014-Oct-29 00:30N 48°50' W 122°43'0 0.0
2014-Oct-28 23:31N 48°50' W 122°43'0 0.0
2014-Oct-28 22:14N 48°50' W 122°43'0 0.0
2014-Oct-28 21:33N 48°50' W 122°43'0 0.0
2014-Oct-28 18:30N 48°50' W 122°43'0 0.0
2014-Oct-28 14:03N 48°50' W 122°43'0 0.0
2014-Oct-28 13:27N 48°50' W 122°43'0 0.0
2014-Oct-28 09:33N 48°50' W 122°43'0 0.0
2014-Oct-28 07:27N 48°50' W 122°43'0 0.0
2014-Oct-28 00:13N 48°50' W 122°43'0 0.0
2014-Oct-27 21:28N 48°50' W 122°43'0 0.0
2014-Oct-27 20:32N 48°50' W 122°43'0 0.0
2014-Oct-27 17:26N 48°50' W 122°43'0 0.0
2014-Oct-27 09:05N 48°50' W 122°43'0 0.0
2014-Oct-27 04:23N 48°50' W 122°43'0 0.0
2014-Oct-27 03:29N 48°50' W 122°43'0 0.0
2014-Oct-27 02:33N 48°50' W 122°43'0 0.0
2014-Oct-27 01:31N 48°50' W 122°43'0 0.0
2014-Oct-27 00:32N 48°50' W 122°43'2 0.3
2014-Oct-26 15:30N 48°47' W 122°43'5 4.7
2014-Oct-26 14:29N 48°43' W 122°40'0 0.0
2014-Oct-26 13:32N 48°43' W 122°40'0 0.0
2014-Oct-26 12:29N 48°43' W 122°40'0 0.0
2014-Oct-26 11:32N 48°43' W 122°40'0 0.0
2014-Oct-26 10:26N 48°43' W 122°40'0 0.0
2014-Oct-26 09:33N 48°43' W 122°40'0 0.0
2014-Oct-26 08:31N 48°43' W 122°40'0 0.0
2014-Oct-26 07:33N 48°43' W 122°40'0 0.0
2014-Oct-26 06:32N 48°43' W 122°40'1 0.9
2014-Oct-26 05:29N 48°44' W 122°41'6 3.0
2014-Oct-26 03:23N 48°50' W 122°43'0 0.0
2014-Oct-26 02:17N 48°50' W 122°43'0 0.0
2014-Oct-26 01:20N 48°50' W 122°43'0 0.0
2014-Oct-26 00:19N 48°50' W 122°43'0 0.0
2014-Oct-25 23:21N 48°50' W 122°43'0 0.0
2014-Oct-25 22:10N 48°50' W 122°43'0 0.0
2014-Oct-25 21:09N 48°50' W 122°43'0 0.0
2014-Oct-25 20:24N 48°50' W 122°43'0 0.0
2014-Oct-25 19:23N 48°50' W 122°43'0 0.0
2014-Oct-25 16:09N 48°50' W 122°43'0 0.0
2014-Oct-25 15:09N 48°50' W 122°43'0 0.1
2014-Oct-25 14:33N 48°50' W 122°43'0 0.0
2014-Oct-25 13:05N 48°50' W 122°43'0 0.0
2014-Oct-25 11:10N 48°50' W 122°43'0 0.0
2014-Oct-25 10:32N 48°50' W 122°43'0 0.0
2014-Oct-25 09:33N 48°50' W 122°43'0 0.0
2014-Oct-25 07:30N 48°50' W 122°43'0 0.0
2014-Oct-25 06:30N 48°50' W 122°43'0 0.0
2014-Oct-25 05:33N 48°50' W 122°43'0 0.0
2014-Oct-25 04:20N 48°50' W 122°43'0 0.0
2014-Oct-25 03:21N 48°50' W 122°43'0 0.0
2014-Oct-24 23:25N 48°50' W 122°43'0 0.0
2014-Oct-24 16:07N 48°50' W 122°43'0 0.0
2014-Oct-24 15:25N 48°50' W 122°43'0 0.0
2014-Oct-24 12:30N 48°50' W 122°43'0 0.0
2014-Oct-24 11:28N 48°50' W 122°43'0 0.0
2014-Oct-24 10:33N 48°50' W 122°43'0 0.0
2014-Oct-24 08:16N 48°50' W 122°43'0 0.0
2014-Oct-24 04:32N 48°50' W 122°43'0 0.0
2014-Oct-23 23:16N 48°50' W 122°43'0 0.0
2014-Oct-23 22:17N 48°50' W 122°43'0 0.0
2014-Oct-23 18:29N 48°50' W 122°43'0 0.0
2014-Oct-23 16:28N 48°50' W 122°43'0 0.0
2014-Oct-23 05:06N 48°50' W 122°43'0 0.0
2014-Oct-23 04:19N 48°50' W 122°43'0 0.0
2014-Oct-23 03:29N 48°50' W 122°43'0 0.0
2014-Oct-23 02:28N 48°50' W 122°43'0 0.0
2014-Oct-23 01:31N 48°50' W 122°43'0 0.0
2014-Oct-22 23:09N 48°50' W 122°43'5 1.6
2014-Oct-22 20:23N 48°45' W 122°42'7 7.4
2014-Oct-22 19:26N 48°41' W 122°33'2 2.8
2014-Oct-22 18:33N 48°44' W 122°31'0 0.2
2014-Oct-22 17:30N 48°43' W 122°31'6 1.2
2014-Oct-22 12:18N 48°43' W 122°40'0 0.0
2014-Oct-22 11:23N 48°43' W 122°40'0 0.0
2014-Oct-22 10:26N 48°43' W 122°40'0 0.0
2014-Oct-22 09:30N 48°43' W 122°40'0 0.0
2014-Oct-22 08:32N 48°43' W 122°40'0 0.0
2014-Oct-22 07:33N 48°43' W 122°40'0 0.1
2014-Oct-22 06:31N 48°43' W 122°40'0 0.1
2014-Oct-22 05:32N 48°43' W 122°40'5 5.1
2014-Oct-22 04:32N 48°47' W 122°44'2 2.5
2014-Oct-22 03:33N 48°50' W 122°43'0 0.0
2014-Oct-22 02:34N 48°50' W 122°43'0 0.0
2014-Oct-22 01:30N 48°50' W 122°43'0 0.0
2014-Oct-22 00:31N 48°50' W 122°43'0 0.0
2014-Oct-21 23:30N 48°50' W 122°43'0 0.0
2014-Oct-21 22:31N 48°50' W 122°43'0 0.0
2014-Oct-21 21:33N 48°50' W 122°43'0 0.0
2014-Oct-21 20:33N 48°50' W 122°43'0 0.0
2014-Oct-21 19:28N 48°50' W 122°43'0 0.0
2014-Oct-21 18:28N 48°50' W 122°43'0 0.0
2014-Oct-21 17:33N 48°50' W 122°43'0 0.0
2014-Oct-21 16:30N 48°50' W 122°43'0 0.0
2014-Oct-21 15:33N 48°50' W 122°43'0 0.0
2014-Oct-21 14:33N 48°50' W 122°43'0 0.0
2014-Oct-21 13:31N 48°50' W 122°43'0 0.0
2014-Oct-21 12:33N 48°50' W 122°43'0 0.0
2014-Oct-21 11:28N 48°50' W 122°43'0 0.0
2014-Oct-21 10:33N 48°50' W 122°43'0 0.0
2014-Oct-21 09:32N 48°50' W 122°43'0 0.0
2014-Oct-21 08:26N 48°50' W 122°43'0 0.0
2014-Oct-21 07:33N 48°50' W 122°43'0 0.0
2014-Oct-21 06:16N 48°50' W 122°43'0 0.0
2014-Oct-21 05:30N 48°50' W 122°43'0 0.0
2014-Oct-21 03:24N 48°50' W 122°43'0 0.0
2014-Oct-21 02:33N 48°50' W 122°43'0 0.0
2014-Oct-21 01:33N 48°50' W 122°43'0 0.0
2014-Oct-21 00:33N 48°50' W 122°43'0 0.0
2014-Oct-20 23:33N 48°50' W 122°43'0 0.0
2014-Oct-20 22:28N 48°50' W 122°43'0 0.0
2014-Oct-20 21:33N 48°50' W 122°43'0 0.0
2014-Oct-20 20:33N 48°50' W 122°43'0 0.0
2014-Oct-20 19:33N 48°50' W 122°43'0 0.0
2014-Oct-20 18:24N 48°50' W 122°43'  
Track history (hours):
 
Tides and Currents Weather Stations Pressure Air Temp Water Temp Dewpoint Dewpoint Depression Visibility Wind Speed Wind Dir Waves Ship Positions

Nrc Columbia

Owner: National Response Corporation, HOUSTON, TX. More information available from US FCC via Universal Licensing System and Coast Guard Vessel Documentation Center.

Last reported at 2014-Oct-30 17:33 UTC. Time now 2014-Oct-30 18:20 UTC.
Position N 48°50' W 122°43'.

Length 35 m.

Type: Pollution control. MMSI: 366710170.

Date/timePositionNaut miles runAvg speedWind from/ knotsBaromVisibWave heightAir tempDewpointWater temp
2014-Oct-30 17:33N 48°50' W 122°43'0 0.0
2014-Oct-30 16:26N 48°50' W 122°43'0 0.0
2014-Oct-30 15:33N 48°50' W 122°43'0 0.0
2014-Oct-30 14:32N 48°50' W 122°43'0 0.0
2014-Oct-30 13:32N 48°50' W 122°43'0 0.0
2014-Oct-30 12:33N 48°50' W 122°43'0 0.0
2014-Oct-30 11:21N 48°50' W 122°43'0 0.0
2014-Oct-30 10:33N 48°50' W 122°43'0 0.0
2014-Oct-30 09:30N 48°50' W 122°43'0 0.0
2014-Oct-30 08:32N 48°50' W 122°43'0 0.0
2014-Oct-30 07:33N 48°50' W 122°43'0 0.0
2014-Oct-30 06:21N 48°50' W 122°43'0 0.0
2014-Oct-30 05:33N 48°50' W 122°43'0 0.0
2014-Oct-30 04:31N 48°50' W 122°43'0 0.0
2014-Oct-29 18:27N 48°50' W 122°43'0 0.0
2014-Oct-29 14:33N 48°50' W 122°43'0 0.0
2014-Oct-29 13:28N 48°50' W 122°43'0 0.0
2014-Oct-29 12:33N 48°50' W 122°43'0 0.0
2014-Oct-29 11:32N 48°50' W 122°43'0 0.0
2014-Oct-29 10:32N 48°50' W 122°43'0 0.0
2014-Oct-29 09:32N 48°50' W 122°43'0 0.0
2014-Oct-29 08:22N 48°50' W 122°43'0 0.0
2014-Oct-29 07:33N 48°50' W 122°43'0 0.0
2014-Oct-29 05:33N 48°50' W 122°43'0 0.0
2014-Oct-29 01:33N 48°50' W 122°43'0 0.0
2014-Oct-29 00:30N 48°50' W 122°43'0 0.0
2014-Oct-28 23:31N 48°50' W 122°43'0 0.0
2014-Oct-28 22:14N 48°50' W 122°43'0 0.0
2014-Oct-28 21:33N 48°50' W 122°43'0 0.0
2014-Oct-28 18:30N 48°50' W 122°43'0 0.0
2014-Oct-28 14:03N 48°50' W 122°43'0 0.0
2014-Oct-28 13:27N 48°50' W 122°43'0 0.0
2014-Oct-28 09:33N 48°50' W 122°43'0 0.0
2014-Oct-28 07:27N 48°50' W 122°43'0 0.0
2014-Oct-28 00:13N 48°50' W 122°43'0 0.0
2014-Oct-27 21:28N 48°50' W 122°43'0 0.0
2014-Oct-27 20:32N 48°50' W 122°43'0 0.0
2014-Oct-27 17:26N 48°50' W 122°43'0 0.0
2014-Oct-27 09:05N 48°50' W 122°43'0 0.0
2014-Oct-27 04:23N 48°50' W 122°43'0 0.0
2014-Oct-27 03:29N 48°50' W 122°43'0 0.0
2014-Oct-27 02:33N 48°50' W 122°43'0 0.0
2014-Oct-27 01:31N 48°50' W 122°43'0 0.0
2014-Oct-27 00:32N 48°50' W 122°43'2 0.3
2014-Oct-26 15:30N 48°47' W 122°43'5 4.7
2014-Oct-26 14:29N 48°43' W 122°40'0 0.0
2014-Oct-26 13:32N 48°43' W 122°40'0 0.0
2014-Oct-26 12:29N 48°43' W 122°40'0 0.0
2014-Oct-26 11:32N 48°43' W 122°40'0 0.0
2014-Oct-26 10:26N 48°43' W 122°40'0 0.0
2014-Oct-26 09:33N 48°43' W 122°40'0 0.0
2014-Oct-26 08:31N 48°43' W 122°40'0 0.0
2014-Oct-26 07:33N 48°43' W 122°40'0 0.0
2014-Oct-26 06:32N 48°43' W 122°40'1 0.9
2014-Oct-26 05:29N 48°44' W 122°41'6 3.0
2014-Oct-26 03:23N 48°50' W 122°43'0 0.0
2014-Oct-26 02:17N 48°50' W 122°43'0 0.0
2014-Oct-26 01:20N 48°50' W 122°43'0 0.0
2014-Oct-26 00:19N 48°50' W 122°43'0 0.0
2014-Oct-25 23:21N 48°50' W 122°43'0 0.0
2014-Oct-25 22:10N 48°50' W 122°43'0 0.0
2014-Oct-25 21:09N 48°50' W 122°43'0 0.0
2014-Oct-25 20:24N 48°50' W 122°43'0 0.0
2014-Oct-25 19:23N 48°50' W 122°43'0 0.0
2014-Oct-25 16:09N 48°50' W 122°43'0 0.0
2014-Oct-25 15:09N 48°50' W 122°43'0 0.1
2014-Oct-25 14:33N 48°50' W 122°43'0 0.0
2014-Oct-25 13:05N 48°50' W 122°43'0 0.0
2014-Oct-25 11:10N 48°50' W 122°43'0 0.0
2014-Oct-25 10:32N 48°50' W 122°43'0 0.0
2014-Oct-25 09:33N 48°50' W 122°43'0 0.0
2014-Oct-25 07:30N 48°50' W 122°43'0 0.0
2014-Oct-25 06:30N 48°50' W 122°43'0 0.0
2014-Oct-25 05:33N 48°50' W 122°43'0 0.0
2014-Oct-25 04:20N 48°50' W 122°43'0 0.0
2014-Oct-25 03:21N 48°50' W 122°43'0 0.0
2014-Oct-24 23:25N 48°50' W 122°43'0 0.0
2014-Oct-24 16:07N 48°50' W 122°43'0 0.0
2014-Oct-24 15:25N 48°50' W 122°43'0 0.0
2014-Oct-24 12:30N 48°50' W 122°43'0 0.0
2014-Oct-24 11:28N 48°50' W 122°43'0 0.0
2014-Oct-24 10:33N 48°50' W 122°43'0 0.0
2014-Oct-24 08:16N 48°50' W 122°43'0 0.0
2014-Oct-24 04:32N 48°50' W 122°43'0 0.0
2014-Oct-23 23:16N 48°50' W 122°43'0 0.0
2014-Oct-23 22:17N 48°50' W 122°43'0 0.0
2014-Oct-23 18:29N 48°50' W 122°43'0 0.0
2014-Oct-23 16:28N 48°50' W 122°43'0 0.0
2014-Oct-23 05:06N 48°50' W 122°43'0 0.0
2014-Oct-23 04:19N 48°50' W 122°43'0 0.0
2014-Oct-23 03:29N 48°50' W 122°43'0 0.0
2014-Oct-23 02:28N 48°50' W 122°43'0 0.0
2014-Oct-23 01:31N 48°50' W 122°43'0 0.0
2014-Oct-22 23:09N 48°50' W 122°43'5 1.6
2014-Oct-22 20:23N 48°45' W 122°42'7 7.4
2014-Oct-22 19:26N 48°41' W 122°33'2 2.8
2014-Oct-22 18:33N 48°44' W 122°31'0 0.2
2014-Oct-22 17:30N 48°43' W 122°31'6 1.2
2014-Oct-22 12:18N 48°43' W 122°40'0 0.0
2014-Oct-22 11:23N 48°43' W 122°40'0 0.0
2014-Oct-22 10:26N 48°43' W 122°40'0 0.0
2014-Oct-22 09:30N 48°43' W 122°40'0 0.0
2014-Oct-22 08:32N 48°43' W 122°40'0 0.0
2014-Oct-22 07:33N 48°43' W 122°40'0 0.1
2014-Oct-22 06:31N 48°43' W 122°40'0 0.1
2014-Oct-22 05:32N 48°43' W 122°40'5 5.1
2014-Oct-22 04:32N 48°47' W 122°44'2 2.5
2014-Oct-22 03:33N 48°50' W 122°43'0 0.0
2014-Oct-22 02:34N 48°50' W 122°43'0 0.0
2014-Oct-22 01:30N 48°50' W 122°43'0 0.0
2014-Oct-22 00:31N 48°50' W 122°43'0 0.0
2014-Oct-21 23:30N 48°50' W 122°43'0 0.0
2014-Oct-21 22:31N 48°50' W 122°43'0 0.0
2014-Oct-21 21:33N 48°50' W 122°43'0 0.0
2014-Oct-21 20:33N 48°50' W 122°43'0 0.0
2014-Oct-21 19:28N 48°50' W 122°43'0 0.0
2014-Oct-21 18:28N 48°50' W 122°43'0 0.0
2014-Oct-21 17:33N 48°50' W 122°43'0 0.0
2014-Oct-21 16:30N 48°50' W 122°43'0 0.0
2014-Oct-21 15:33N 48°50' W 122°43'0 0.0
2014-Oct-21 14:33N 48°50' W 122°43'0 0.0
2014-Oct-21 13:31N 48°50' W 122°43'0 0.0
2014-Oct-21 12:33N 48°50' W 122°43'0 0.0
2014-Oct-21 11:28N 48°50' W 122°43'0 0.0
2014-Oct-21 10:33N 48°50' W 122°43'0 0.0
2014-Oct-21 09:32N 48°50' W 122°43'0 0.0
2014-Oct-21 08:26N 48°50' W 122°43'0 0.0
2014-Oct-21 07:33N 48°50' W 122°43'0 0.0
2014-Oct-21 06:16N 48°50' W 122°43'0 0.0
2014-Oct-21 05:30N 48°50' W 122°43'0 0.0
2014-Oct-21 03:24N 48°50' W 122°43'0 0.0
2014-Oct-21 02:33N 48°50' W 122°43'0 0.0
2014-Oct-21 01:33N 48°50' W 122°43'0 0.0
2014-Oct-21 00:33N 48°50' W 122°43'0 0.0
2014-Oct-20 23:33N 48°50' W 122°43'0 0.0
2014-Oct-20 22:28N 48°50' W 122°43'0 0.0
2014-Oct-20 21:33N 48°50' W 122°43'0 0.0
2014-Oct-20 20:33N 48°50' W 122°43'0 0.0
2014-Oct-20 19:33N 48°50' W 122°43'0 0.0
2014-Oct-20 18:24N 48°50' W 122°43'  

Dump ship's entire track history